,,,PA_Meas_PMT16A,,PR_Meas_QMR101_102,,RH_Meas_QMH101,,SR_Meas_QMS101,,TA_Meas_QMH101,,GenWind,,GenWind,
date,time,status,PA,status,PR,status,RH,status,SR,status,TA,status,DirAvg,status,SpdAvg,
2014-08-16, 00:00:05,VALID,1011.75,VALID,0,INVALID,138.522,VALID,0,VALID,22.9731,VALID,308,VALID,0,
2014-08-16, 00:01:05,VALID,1011.73,VALID,0,INVALID,138.461,VALID,0,VALID,22.9536,VALID,307,VALID,0,
2014-08-16, 00:02:05,VALID,1011.73,VALID,0,INVALID,138.484,VALID,0,VALID,22.9749,VALID,308,VALID,0,
2014-08-16, 00:03:05,VALID,1011.74,VALID,0,INVALID,138.484,VALID,0,VALID,22.9536,VALID,308,VALID,0,
2014-08-16, 00:04:05,VALID,1011.75,VALID,0,INVALID,138.491,VALID,0,VALID,22.9536,VALID,308,VALID,0,
2014-08-16, 00:05:05,VALID,1011.76,VALID,0,INVALID,138.529,VALID,0,VALID,22.9536,VALID,308,VALID,0,
2014-08-16, 00:06:05,VALID,1011.76,VALID,0,INVALID,138.514,VALID,0,VALID,22.9536,VALID,307,VALID,0,
2014-08-16, 00:07:05,VALID,1011.76,VALID,0,INVALID,138.529,VALID,0,VALID,22.9536,VALID,308,VALID,0,
2014-08-16, 00:08:05,VALID,1011.76,VALID,0,INVALID,138.545,VALID,0,VALID,22.9749,VALID,308,VALID,0,
2014-08-16, 00:09:05,VALID,1011.75,VALID,0,INVALID,138.568,VALID,0,VALID,22.9536,VALID,308,VALID,0,
2014-08-16, 00:10:05,VALID,1011.75,VALID,0,INVALID,138.575,VALID,0,VALID,22.9749,VALID,307,VALID,0,
2014-08-16, 00:11:05,VALID,1011.74,VALID,0,INVALID,138.613,VALID,0.112112,VALID,22.9731,VALID,307,VALID,0,
2014-08-16, 00:12:05,VALID,1011.71,VALID,0,INVALID,138.621,VALID,0.112112,VALID,22.9519,VALID,308,VALID,0,
2014-08-16, 00:13:05,VALID,1011.71,VALID,0,INVALID,138.598,VALID,0.112112,VALID,22.9324,VALID,308,VALID,0,
2014-08-16, 00:14:05,VALID,1011.73,VALID,0,INVALID,138.613,VALID,0.112112,VALID,22.9519,VALID,307,VALID,0,
2014-08-16, 00:15:05,VALID,1011.73,VALID,0,INVALID,138.659,VALID,0.112112,VALID,22.9731,VALID,307,VALID,0,
2014-08-16, 00:16:05,VALID,1011.72,VALID,0,INVALID,138.644,VALID,0.112112,VALID,22.9324,VALID,308,VALID,0,
2014-08-16, 00:17:05,VALID,1011.74,VALID,0,INVALID,138.651,VALID,0.112112,VALID,22.9324,VALID,308,VALID,0,
2014-08-16, 00:18:05,VALID,1011.73,VALID,0,INVALID,138.667,VALID,0.112112,VALID,22.9324,VALID,307,VALID,0,
2014-08-16, 00:19:05,VALID,1011.71,VALID,0,INVALID,138.667,VALID,0.112112,VALID,22.9324,VALID,308,VALID,0,
2014-08-16, 00:20:05,VALID,1011.72,VALID,0,INVALID,138.674,VALID,0.112112,VALID,22.9324,VALID,308,VALID,0,
2014-08-16, 00:21:05,VALID,1011.69,VALID,0,INVALID,138.72,VALID,0.112112,VALID,22.9129,VALID,308,VALID,0,
2014-08-16, 00:22:05,VALID,1011.68,VALID,0,INVALID,138.712,VALID,0,VALID,22.8935,VALID,308,VALID,0,
2014-08-16, 00:23:05,VALID,1011.65,VALID,0,INVALID,138.789,VALID,0,VALID,22.8952,VALID,307,VALID,0,
2014-08-16, 00:24:05,VALID,1011.65,VALID,0,INVALID,138.804,VALID,0.112112,VALID,22.8528,VALID,308,VALID,0,
2014-08-16, 00:25:05,VALID,1011.66,VALID,0,INVALID,138.789,VALID,0,VALID,22.8952,VALID,308,VALID,0,
2014-08-16, 00:26:05,VALID,1011.67,VALID,0,INVALID,138.804,VALID,0,VALID,22.8562,VALID,307,VALID,0,
2014-08-16, 00:27:05,VALID,1011.66,VALID,0,INVALID,138.773,VALID,0,VALID,22.8562,VALID,308,VALID,0,
2014-08-16, 00:28:05,VALID,1011.64,VALID,0,INVALID,138.751,VALID,0,VALID,22.8775,VALID,308,VALID,0,
2014-08-16, 00:29:05,VALID,1011.64,VALID,0,INVALID,138.705,VALID,0,VALID,22.8775,VALID,308,VALID,0,
2014-08-16, 00:30:05,VALID,1011.61,VALID,0,INVALID,138.667,VALID,0,VALID,22.8545,VALID,307,VALID,0,
2014-08-16, 00:31:05,VALID,1011.61,VALID,0,INVALID,138.682,VALID,0.112112,VALID,22.8545,VALID,308,VALID,0,
2014-08-16, 00:32:05,VALID,1011.59,VALID,0,INVALID,138.712,VALID,0.112112,VALID,22.8562,VALID,308,VALID,0,
2014-08-16, 00:33:05,VALID,1011.57,VALID,0,INVALID,138.697,VALID,0.112112,VALID,22.8562,VALID,308,VALID,0,
2014-08-16, 00:34:05,VALID,1011.54,VALID,0,INVALID,138.682,VALID,0.112112,VALID,22.8562,VALID,308,VALID,0,
2014-08-16, 00:35:05,VALID,1011.53,VALID,0,INVALID,138.621,VALID,0.112112,VALID,22.835,VALID,307,VALID,0,
2014-08-16, 00:36:05,VALID,1011.5,VALID,0,INVALID,138.59,VALID,0.112112,VALID,22.8562,VALID,308,VALID,0,
2014-08-16, 00:37:05,VALID,1011.49,VALID,0,INVALID,138.583,VALID,0.112112,VALID,22.8562,VALID,307,VALID,0,
2014-08-16, 00:38:05,VALID,1011.46,VALID,0,INVALID,138.56,VALID,0.112112,VALID,22.835,VALID,308,VALID,0,
2014-08-16, 00:39:05,VALID,1011.47,VALID,0,INVALID,138.529,VALID,0.112112,VALID,22.8562,VALID,308,VALID,0,
2014-08-16, 00:40:05,VALID,1011.44,VALID,0,INVALID,138.476,VALID,0.112112,VALID,22.835,VALID,308,VALID,0,
2014-08-16, 00:41:05,VALID,1011.44,VALID,0,INVALID,138.461,VALID,0.112112,VALID,22.835,VALID,307,VALID,0,
2014-08-16, 00:42:05,VALID,1011.43,VALID,0,INVALID,138.453,VALID,0.112112,VALID,22.835,VALID,308,VALID,0,
2014-08-16, 00:43:05,VALID,1011.41,VALID,0,INVALID,138.476,VALID,0.112112,VALID,22.835,VALID,307,VALID,0,
2014-08-16, 00:44:05,VALID,1011.41,VALID,0,INVALID,138.507,VALID,0.112112,VALID,22.8562,VALID,307,VALID,0,
2014-08-16, 00:45:05,VALID,1011.38,VALID,0,INVALID,138.537,VALID,0.112112,VALID,22.835,VALID,307,VALID,0,
2014-08-16, 00:46:05,VALID,1011.37,VALID,0,INVALID,138.606,VALID,0.112112,VALID,22.8562,VALID,308,VALID,0,
2014-08-16, 00:47:05,VALID,1011.35,VALID,0,INVALID,138.598,VALID,0.112112,VALID,22.8368,VALID,307,VALID,0,
2014-08-16, 00:48:05,VALID,1011.37,VALID,0,INVALID,138.552,VALID,0.112112,VALID,22.8368,VALID,308,VALID,0,
2014-08-16, 00:49:05,VALID,1011.32,VALID,0,INVALID,138.545,VALID,0.112112,VALID,22.8155,VALID,308,VALID,0,
2014-08-16, 00:50:05,VALID,1011.34,VALID,0,INVALID,138.568,VALID,0.112112,VALID,22.8155,VALID,308,VALID,0,
2014-08-16, 00:51:05,VALID,1011.32,VALID,0,INVALID,138.598,VALID,0.112112,VALID,22.8155,VALID,308,VALID,0,
2014-08-16, 00:52:05,VALID,1011.31,VALID,0,INVALID,138.59,VALID,0.224224,VALID,22.7961,VALID,308,VALID,0,
2014-08-16, 00:53:05,VALID,1011.33,VALID,0,INVALID,138.522,VALID,0.112112,VALID,22.7961,VALID,308,VALID,0,
2014-08-16, 00:54:05,VALID,1011.32,VALID,0,INVALID,138.537,VALID,0.112112,VALID,22.7961,VALID,308,VALID,0,
2014-08-16, 00:55:04,VALID,1011.3,VALID,0,INVALID,138.461,VALID,0.112112,VALID,22.8173,VALID,308,VALID,0,
2014-08-16, 00:56:04,VALID,1011.29,VALID,0,INVALID,138.468,VALID,0,VALID,22.7978,VALID,307,VALID,0,
2014-08-16, 00:57:04,VALID,1011.29,VALID,0,INVALID,138.392,VALID,0,VALID,22.7978,VALID,308,VALID,0,
2014-08-16, 00:58:04,VALID,1011.28,VALID,0,INVALID,138.377,VALID,0,VALID,22.7978,VALID,308,VALID,0,
2014-08-16, 00:59:04,VALID,1011.27,VALID,0,INVALID,138.324,VALID,0,VALID,22.7978,VALID,307,VALID,0,
2014-08-16, 01:00:04,VALID,1011.25,VALID,0,INVALID,138.285,VALID,0,VALID,22.7783,VALID,308,VALID,0,
2014-08-16, 01:01:04,VALID,1011.26,VALID,0,INVALID,138.224,VALID,0,VALID,22.7978,VALID,308,VALID,0,
2014-08-16, 01:02:04,VALID,1011.26,VALID,0,INVALID,138.202,VALID,0,VALID,22.7783,VALID,308,VALID,0,
2014-08-16, 01:03:04,VALID,1011.26,VALID,0,INVALID,138.148,VALID,0,VALID,22.7783,VALID,308,VALID,0,
2014-08-16, 01:04:04,VALID,1011.25,VALID,0,INVALID,138.049,VALID,0,VALID,22.7978,VALID,308,VALID,0,
2014-08-16, 01:05:04,VALID,1011.23,VALID,0,INVALID,137.996,VALID,0,VALID,22.7978,VALID,308,VALID,0,
2014-08-16, 01:06:04,VALID,1011.22,VALID,0,INVALID,138.003,VALID,0,VALID,22.7995,VALID,308,VALID,0,
2014-08-16, 01:07:04,VALID,1011.22,VALID,0,INVALID,137.965,VALID,0,VALID,22.7783,VALID,308,VALID,0,
2014-08-16, 01:08:04,VALID,1011.19,VALID,0,INVALID,137.912,VALID,0,VALID,22.7978,VALID,308,VALID,0,
2014-08-16, 01:09:04,VALID,1011.19,VALID,0,INVALID,137.851,VALID,0,VALID,22.7978,VALID,308,VALID,0,
2014-08-16, 01:10:04,VALID,1011.13,VALID,0,INVALID,137.759,VALID,0,VALID,22.7978,VALID,308,VALID,0,
2014-08-16, 01:11:04,VALID,1011.16,VALID,0,INVALID,137.729,VALID,0,VALID,22.7978,VALID,307,VALID,0,
2014-08-16, 01:12:04,VALID,1011.13,VALID,0,INVALID,137.736,VALID,0,VALID,22.7978,VALID,308,VALID,0,
2014-08-16, 01:13:04,VALID,1011.18,VALID,0,INVALID,137.675,VALID,0,VALID,22.7978,VALID,308,VALID,0,
2014-08-16, 01:14:04,VALID,1011.2,VALID,0,INVALID,137.668,VALID,0,VALID,22.7978,VALID,308,VALID,0,
2014-08-16, 01:15:04,VALID,1011.2,VALID,0,INVALID,137.607,VALID,0,VALID,22.7978,VALID,308,VALID,0,
2014-08-16, 01:16:04,VALID,1011.23,VALID,0,INVALID,137.652,VALID,0,VALID,22.7978,VALID,308,VALID,0,
2014-08-16, 01:17:04,VALID,1011.24,VALID,0,INVALID,137.645,VALID,0,VALID,22.7978,VALID,308,VALID,0,
2014-08-16, 01:18:04,VALID,1011.25,VALID,0,INVALID,137.63,VALID,0,VALID,22.7995,VALID,308,VALID,0,
2014-08-16, 01:19:04,VALID,1011.22,VALID,0,INVALID,137.63,VALID,0,VALID,22.7783,VALID,307,VALID,0,
2014-08-16, 01:20:04,VALID,1011.23,VALID,0,INVALID,137.599,VALID,0,VALID,22.7783,VALID,308,VALID,0,
2014-08-16, 01:21:04,VALID,1011.19,VALID,0,INVALID,137.622,VALID,0,VALID,22.7783,VALID,308,VALID,0,
2014-08-16, 01:22:04,VALID,1011.21,VALID,0,INVALID,137.591,VALID,0,VALID,22.7995,VALID,308,VALID,0,
2014-08-16, 01:23:04,VALID,1011.22,VALID,0,INVALID,137.599,VALID,0,VALID,22.7995,VALID,308,VALID,0,
2014-08-16, 01:24:04,VALID,1011.21,VALID,0,INVALID,137.591,VALID,0,VALID,22.7995,VALID,308,VALID,0,
2014-08-16, 01:25:04,VALID,1011.21,VALID,0,INVALID,137.599,VALID,0,VALID,22.7995,VALID,308,VALID,0,
2014-08-16, 01:26:04,VALID,1011.17,VALID,0,INVALID,137.599,VALID,0,VALID,22.7995,VALID,308,VALID,0,
2014-08-16, 01:27:04,VALID,1011.17,VALID,0,INVALID,137.691,VALID,0,VALID,22.78,VALID,308,VALID,0,
2014-08-16, 01:28:04,VALID,1011.18,VALID,0,INVALID,137.713,VALID,0,VALID,22.7588,VALID,308,VALID,0,
2014-08-16, 01:29:04,VALID,1011.16,VALID,0,INVALID,137.82,VALID,0,VALID,22.7588,VALID,308,VALID,0,
2014-08-16, 01:30:04,VALID,1011.14,VALID,0,INVALID,137.736,VALID,0,VALID,22.7995,VALID,308,VALID,0,
2014-08-16, 01:31:04,VALID,1011.14,VALID,0,INVALID,137.691,VALID,0,VALID,22.7783,VALID,308,VALID,0,
2014-08-16, 01:32:04,VALID,1011.16,VALID,0,INVALID,137.622,VALID,0,VALID,22.7995,VALID,308,VALID,0,
2014-08-16, 01:33:04,VALID,1011.17,VALID,0,INVALID,137.569,VALID,0,VALID,22.7783,VALID,308,VALID,0,
2014-08-16, 01:34:04,VALID,1011.16,VALID,0,INVALID,137.584,VALID,0,VALID,22.7783,VALID,308,VALID,0,
2014-08-16, 01:35:04,VALID,1011.19,VALID,0,INVALID,137.591,VALID,0,VALID,22.7995,VALID,308,VALID,0,
2014-08-16, 01:36:04,VALID,1011.17,VALID,0,INVALID,137.538,VALID,0,VALID,22.7783,VALID,307,VALID,0,
2014-08-16, 01:37:04,VALID,1011.18,VALID,0,INVALID,137.538,VALID,0,VALID,22.7995,VALID,308,VALID,0,
2014-08-16, 01:38:04,VALID,1011.15,VALID,0,INVALID,137.508,VALID,0,VALID,22.819,VALID,307,VALID,0,
2014-08-16, 01:39:04,VALID,1011.15,VALID,0,INVALID,137.515,VALID,0,VALID,22.819,VALID,308,VALID,0,
2014-08-16, 01:40:04,VALID,1011.17,VALID,0,INVALID,137.523,VALID,0,VALID,22.819,VALID,308,VALID,0,
2014-08-16, 01:41:04,VALID,1011.18,VALID,0,INVALID,137.492,VALID,0,VALID,22.7978,VALID,308,VALID,0,
2014-08-16, 01:42:04,VALID,1011.2,VALID,0,INVALID,137.5,VALID,0,VALID,22.8173,VALID,308,VALID,0,
2014-08-16, 01:43:04,VALID,1011.24,VALID,0,INVALID,137.485,VALID,0,VALID,22.819,VALID,308,VALID,0,
2014-08-16, 01:44:04,VALID,1011.25,VALID,0,INVALID,137.477,VALID,0,VALID,22.8173,VALID,308,VALID,0,
2014-08-16, 01:45:04,VALID,1011.27,VALID,0,INVALID,137.347,VALID,0,VALID,22.8368,VALID,308,VALID,0,
2014-08-16, 01:46:04,VALID,1011.3,VALID,0,INVALID,137.34,VALID,0,VALID,22.8368,VALID,308,VALID,0,
2014-08-16, 01:47:04,VALID,1011.32,VALID,0,INVALID,137.347,VALID,0,VALID,22.8368,VALID,308,VALID,0,
2014-08-16, 01:48:04,VALID,1011.3,VALID,0,INVALID,137.355,VALID,0,VALID,22.8562,VALID,308,VALID,0,
2014-08-16, 01:49:04,VALID,1011.27,VALID,0,INVALID,137.34,VALID,0,VALID,22.8562,VALID,308,VALID,0,
2014-08-16, 01:50:04,VALID,1011.23,VALID,0,INVALID,137.424,VALID,0,VALID,22.8368,VALID,308,VALID,0,
2014-08-16, 01:51:04,VALID,1011.2,VALID,0,INVALID,137.363,VALID,0,VALID,22.8775,VALID,308,VALID,0,
2014-08-16, 01:52:04,VALID,1011.18,VALID,0,INVALID,137.271,VALID,0,VALID,22.8757,VALID,308,VALID,0,
2014-08-16, 01:53:04,VALID,1011.16,VALID,0,INVALID,137.256,VALID,0,VALID,22.8757,VALID,308,VALID,0,
2014-08-16, 01:54:04,VALID,1011.16,VALID,0,INVALID,137.34,VALID,0,VALID,22.8775,VALID,308,VALID,0,
2014-08-16, 01:55:04,VALID,1011.16,VALID,0,INVALID,137.317,VALID,0,VALID,22.8562,VALID,308,VALID,0,
2014-08-16, 01:56:04,VALID,1011.13,VALID,0,INVALID,137.462,VALID,0,VALID,22.8368,VALID,308,VALID,0,
2014-08-16, 01:57:04,VALID,1011.17,VALID,0,INVALID,137.637,VALID,0,VALID,22.8173,VALID,308,VALID,0,
2014-08-16, 01:58:04,VALID,1011.17,VALID,0,INVALID,137.805,VALID,0,VALID,22.7783,VALID,308,VALID,0,
2014-08-16, 01:59:04,VALID,1011.15,VALID,0,INVALID,137.782,VALID,0,VALID,22.7783,VALID,308,VALID,0,
2014-08-16, 02:00:04,VALID,1011.15,VALID,0,INVALID,137.736,VALID,0,VALID,22.7978,VALID,308,VALID,0,
2014-08-16, 02:01:04,VALID,1011.16,VALID,0,INVALID,137.668,VALID,0,VALID,22.7978,VALID,308,VALID,0,
2014-08-16, 02:02:04,VALID,1011.14,VALID,0,INVALID,137.591,VALID,0,VALID,22.819,VALID,308,VALID,0,
2014-08-16, 02:03:04,VALID,1011.14,VALID,0,INVALID,137.553,VALID,0,VALID,22.7978,VALID,308,VALID,0,
2014-08-16, 02:04:04,VALID,1011.14,VALID,0,INVALID,137.431,VALID,0,VALID,22.8385,VALID,307,VALID,0,
2014-08-16, 02:05:04,VALID,1011.13,VALID,0,INVALID,137.416,VALID,0,VALID,22.8173,VALID,308,VALID,0,
2014-08-16, 02:06:04,VALID,1011.13,VALID,0,INVALID,137.317,VALID,0,VALID,22.8368,VALID,307,VALID,0,
2014-08-16, 02:07:04,VALID,1011.13,VALID,0,INVALID,137.248,VALID,0,VALID,22.8368,VALID,308,VALID,0,
2014-08-16, 02:08:04,VALID,1011.13,VALID,0,INVALID,137.225,VALID,0,VALID,22.858,VALID,308,VALID,0,
2014-08-16, 02:09:04,VALID,1011.07,VALID,0,INVALID,137.241,VALID,0,VALID,22.8385,VALID,308,VALID,0,
2014-08-16, 02:10:04,VALID,1011.1,VALID,0,INVALID,137.347,VALID,0,VALID,22.858,VALID,308,VALID,0,
2014-08-16, 02:11:04,VALID,1011.08,VALID,0,INVALID,137.378,VALID,0,VALID,22.8368,VALID,308,VALID,0,
2014-08-16, 02:12:04,VALID,1011.06,VALID,0,INVALID,137.469,VALID,0,VALID,22.8562,VALID,308,VALID,0,
2014-08-16, 02:13:04,VALID,1011.06,VALID,0,INVALID,137.462,VALID,0,VALID,22.8775,VALID,308,VALID,0,
2014-08-16, 02:14:04,VALID,1011.05,VALID,0,INVALID,137.477,VALID,0,VALID,22.8562,VALID,308,VALID,0,
2014-08-16, 02:15:04,VALID,1011.01,VALID,0,INVALID,137.553,VALID,0,VALID,22.858,VALID,307,VALID,0,
2014-08-16, 02:16:04,VALID,1010.97,VALID,0,INVALID,137.576,VALID,0,VALID,22.8775,VALID,308,VALID,0,
2014-08-16, 02:17:04,VALID,1010.97,VALID,0,INVALID,137.576,VALID,0,VALID,22.8562,VALID,308,VALID,0,
2014-08-16, 02:18:04,VALID,1010.95,VALID,0,INVALID,137.599,VALID,0,VALID,22.8969,VALID,307,VALID,0,
2014-08-16, 02:19:04,VALID,1010.93,VALID,0,INVALID,137.607,VALID,0,VALID,22.8757,VALID,308,VALID,0,
2014-08-16, 02:20:04,VALID,1010.89,VALID,0,INVALID,137.553,VALID,0,VALID,22.8952,VALID,308,VALID,0,
2014-08-16, 02:21:04,VALID,1010.87,VALID,0,INVALID,137.515,VALID,0,VALID,22.9164,VALID,308,VALID,0,
2014-08-16, 02:22:04,VALID,1010.87,VALID,0,INVALID,137.5,VALID,0,VALID,22.9147,VALID,308,VALID,0,
2014-08-16, 02:23:04,VALID,1010.83,VALID,0,INVALID,137.576,VALID,0,VALID,22.9164,VALID,308,VALID,0,
2014-08-16, 02:24:04,VALID,1010.84,VALID,0,INVALID,137.637,VALID,0,VALID,22.8952,VALID,307,VALID,0,
2014-08-16, 02:25:04,VALID,1010.81,VALID,0,INVALID,137.63,VALID,0,VALID,22.8952,VALID,308,VALID,0,
2014-08-16, 02:26:04,VALID,1010.81,VALID,0,INVALID,137.744,VALID,0,VALID,22.9164,VALID,307,VALID,0,
2014-08-16, 02:27:04,VALID,1010.8,VALID,0,INVALID,137.805,VALID,0,VALID,22.8969,VALID,308,VALID,0,
2014-08-16, 02:28:04,VALID,1010.82,VALID,0,INVALID,137.958,VALID,0,VALID,22.8562,VALID,308,VALID,0,
2014-08-16, 02:29:04,VALID,1010.85,VALID,0,INVALID,138.049,VALID,0,VALID,22.8562,VALID,308,VALID,0,
2014-08-16, 02:30:04,VALID,1010.86,VALID,0,INVALID,138.133,VALID,0,VALID,22.8368,VALID,308,VALID,0,
2014-08-16, 02:31:04,VALID,1010.89,VALID,0,INVALID,138.179,VALID,0,VALID,22.8173,VALID,308,VALID,0,
2014-08-16, 02:32:04,VALID,1010.91,VALID,0,INVALID,138.316,VALID,0,VALID,22.7978,VALID,308,VALID,0,
2014-08-16, 02:33:04,VALID,1010.9,VALID,0,INVALID,138.43,VALID,0,VALID,22.7783,VALID,308,VALID,0,
2014-08-16, 02:34:04,VALID,1010.92,VALID,0,INVALID,138.491,VALID,0,VALID,22.7394,VALID,308,VALID,0,
2014-08-16, 02:35:04,VALID,1010.91,VALID,0,INVALID,138.537,VALID,0,VALID,22.7394,VALID,308,VALID,0,
2014-08-16, 02:36:04,VALID,1010.88,VALID,0,INVALID,138.522,VALID,0,VALID,22.7394,VALID,308,VALID,0,
2014-08-16, 02:37:04,VALID,1010.88,VALID,0,INVALID,138.522,VALID,0,VALID,22.7199,VALID,308,VALID,0,
2014-08-16, 02:38:04,VALID,1010.86,VALID,0,INVALID,138.522,VALID,0,VALID,22.7199,VALID,308,VALID,0,
2014-08-16, 02:39:04,VALID,1010.87,VALID,0,INVALID,138.461,VALID,0,VALID,22.7216,VALID,308,VALID,0,
2014-08-16, 02:40:04,VALID,1010.84,VALID,0,INVALID,138.415,VALID,0,VALID,22.7199,VALID,308,VALID,0,
2014-08-16, 02:41:04,VALID,1010.82,VALID,0,INVALID,138.346,VALID,0,VALID,22.7182,VALID,308,VALID,0,
2014-08-16, 02:42:04,VALID,1010.81,VALID,0,INVALID,138.324,VALID,0.112112,VALID,22.6987,VALID,308,VALID,0,
2014-08-16, 02:43:04,VALID,1010.8,VALID,0,INVALID,138.27,VALID,0.112112,VALID,22.6987,VALID,308,VALID,0,
2014-08-16, 02:44:04,VALID,1010.8,VALID,0,INVALID,138.24,VALID,0.112112,VALID,22.7199,VALID,308,VALID,0,
2014-08-16, 02:45:04,VALID,1010.81,VALID,0,INVALID,138.087,VALID,0.112112,VALID,22.7182,VALID,308,VALID,0,
2014-08-16, 02:46:04,VALID,1010.8,VALID,0,INVALID,137.927,VALID,0.112112,VALID,22.7182,VALID,308,VALID,0,
2014-08-16, 02:47:04,VALID,1010.78,VALID,0,INVALID,137.858,VALID,0.112112,VALID,22.7182,VALID,308,VALID,0,
2014-08-16, 02:48:04,VALID,1010.79,VALID,0,INVALID,137.744,VALID,0.112112,VALID,22.7182,VALID,308,VALID,0,
2014-08-16, 02:49:04,VALID,1010.78,VALID,0,INVALID,137.691,VALID,0.112112,VALID,22.7394,VALID,308,VALID,0,
2014-08-16, 02:50:04,VALID,1010.79,VALID,0,INVALID,137.713,VALID,0.112112,VALID,22.7394,VALID,308,VALID,0,
2014-08-16, 02:51:04,VALID,1010.78,VALID,0,INVALID,137.675,VALID,0.112112,VALID,22.7394,VALID,308,VALID,0,
2014-08-16, 02:52:04,VALID,1010.8,VALID,0,INVALID,137.652,VALID,0.112112,VALID,22.7394,VALID,308,VALID,0,
2014-08-16, 02:53:04,VALID,1010.82,VALID,0,INVALID,137.569,VALID,0,VALID,22.7182,VALID,308,VALID,0,
2014-08-16, 02:54:04,VALID,1010.81,VALID,0,INVALID,137.5,VALID,0.112112,VALID,22.7182,VALID,307,VALID,0,
2014-08-16, 02:55:04,VALID,1010.8,VALID,0,INVALID,137.431,VALID,0.112112,VALID,22.6987,VALID,308,VALID,0,
2014-08-16, 02:56:04,VALID,1010.78,VALID,0,INVALID,137.34,VALID,0,VALID,22.7411,VALID,308,VALID,0,
2014-08-16, 02:57:04,VALID,1010.79,VALID,0,INVALID,137.279,VALID,0,VALID,22.7216,VALID,308,VALID,0,
2014-08-16, 02:58:04,VALID,1010.77,VALID,0,INVALID,137.218,VALID,0,VALID,22.7199,VALID,308,VALID,0,
2014-08-16, 02:59:04,VALID,1010.78,VALID,0,INVALID,137.111,VALID,0,VALID,22.7411,VALID,308,VALID,0,
2014-08-16, 03:00:04,VALID,1010.78,VALID,0,INVALID,137.058,VALID,0,VALID,22.7199,VALID,308,VALID,0,
2014-08-16, 03:01:04,VALID,1010.76,VALID,0,INVALID,136.989,VALID,0,VALID,22.7411,VALID,308,VALID,0,
2014-08-16, 03:02:04,VALID,1010.77,VALID,0,INVALID,136.928,VALID,0,VALID,22.7394,VALID,308,VALID,0,
2014-08-16, 03:03:04,VALID,1010.73,VALID,0,INVALID,136.913,VALID,0,VALID,22.7411,VALID,308,VALID,0,
2014-08-16, 03:04:04,VALID,1010.78,VALID,0,INVALID,136.928,VALID,0,VALID,22.7411,VALID,308,VALID,0,
2014-08-16, 03:05:04,VALID,1010.75,VALID,0,INVALID,136.974,VALID,0,VALID,22.7216,VALID,308,VALID,0,
2014-08-16, 03:06:04,VALID,1010.78,VALID,0,INVALID,136.981,VALID,0,VALID,22.6809,VALID,308,VALID,0,
2014-08-16, 03:07:04,VALID,1010.79,VALID,0,INVALID,136.997,VALID,0,VALID,22.6809,VALID,308,VALID,0,
2014-08-16, 03:08:04,VALID,1010.8,VALID,0,INVALID,136.905,VALID,0,VALID,22.6809,VALID,308,VALID,0,
2014-08-16, 03:09:04,VALID,1010.81,VALID,0,INVALID,136.829,VALID,0,VALID,22.7004,VALID,308,VALID,0,
2014-08-16, 03:10:04,VALID,1010.86,VALID,0,INVALID,136.753,VALID,0,VALID,22.7004,VALID,308,VALID,0,
2014-08-16, 03:11:04,VALID,1010.84,VALID,0,INVALID,136.402,VALID,0,VALID,22.7588,VALID,308,VALID,0,
2014-08-16, 03:12:04,VALID,1010.88,VALID,0,INVALID,136.112,VALID,0,VALID,22.8173,VALID,308,VALID,0,
2014-08-16, 03:13:04,VALID,1010.91,VALID,0,INVALID,135.975,VALID,0,VALID,22.8385,VALID,308,VALID,0,
2014-08-16, 03:14:04,VALID,1010.93,VALID,0,INVALID,135.845,VALID,0,VALID,22.858,VALID,308,VALID,0,
2014-08-16, 03:15:04,VALID,1010.96,VALID,0,INVALID,135.799,VALID,0,VALID,22.8173,VALID,308,VALID,0,
2014-08-16, 03:16:04,VALID,1011.01,VALID,0,INVALID,135.738,VALID,0,VALID,22.8368,VALID,308,VALID,0,
2014-08-16, 03:17:04,VALID,1011.04,VALID,0,INVALID,135.685,VALID,0,VALID,22.8562,VALID,308,VALID,0,
2014-08-16, 03:18:04,VALID,1011.07,VALID,0,INVALID,135.548,VALID,0,VALID,22.8757,VALID,308,VALID,0,
2014-08-16, 03:19:04,VALID,1011.11,VALID,0,INVALID,135.449,VALID,0,VALID,22.8952,VALID,308,VALID,0,
2014-08-16, 03:20:04,VALID,1011.15,VALID,0,INVALID,135.243,VALID,0,VALID,22.9749,VALID,20,VALID,0,
2014-08-16, 03:21:04,VALID,1011.17,VALID,0,INVALID,135.121,VALID,0,VALID,22.9731,VALID,20,VALID,0,
2014-08-16, 03:22:04,VALID,1011.17,VALID,0,INVALID,135.098,VALID,0,VALID,22.9926,VALID,20,VALID,0,
2014-08-16, 03:23:04,VALID,1011.2,VALID,0,INVALID,135.182,VALID,0,VALID,23.0121,VALID,20,VALID,0,
2014-08-16, 03:24:04,VALID,1011.21,VALID,0,INVALID,135.571,VALID,0,VALID,22.9731,VALID,20,VALID,0,
2014-08-16, 03:25:04,VALID,1011.22,VALID,0,INVALID,135.792,VALID,0,VALID,22.9731,VALID,20,VALID,0,
2014-08-16, 03:26:04,VALID,1011.23,VALID,0,INVALID,136.059,VALID,0,VALID,22.9536,VALID,20,VALID,0,
2014-08-16, 03:27:04,VALID,1011.23,VALID,0,INVALID,136.417,VALID,0,VALID,22.9536,VALID,20,VALID,0,
2014-08-16, 03:28:04,VALID,1011.25,VALID,0,INVALID,136.524,VALID,0,VALID,22.9749,VALID,20,VALID,0,
2014-08-16, 03:29:04,VALID,1011.23,VALID,0,INVALID,136.707,VALID,0,VALID,22.9926,VALID,20,VALID,0,
2014-08-16, 03:30:04,VALID,1011.24,VALID,0,INVALID,137.05,VALID,0,VALID,22.9731,VALID,20,VALID,0,
2014-08-16, 03:31:04,VALID,1011.24,VALID,0,INVALID,137.256,VALID,0,VALID,22.9731,VALID,20,VALID,0,
2014-08-16, 03:32:04,VALID,1011.24,VALID,0,INVALID,137.508,VALID,0,VALID,22.9536,VALID,20,VALID,0,
2014-08-16, 03:33:04,VALID,1011.24,VALID,0,INVALID,137.66,VALID,0,VALID,22.9536,VALID,30,VALID,0,
2014-08-16, 03:34:04,VALID,1011.25,VALID,0,INVALID,137.98,VALID,0,VALID,22.9536,VALID,30,VALID,0,
2014-08-16, 03:35:04,VALID,1011.23,VALID,0,INVALID,138.156,VALID,0,VALID,22.9342,VALID,30,VALID,0,
2014-08-16, 03:36:04,VALID,1011.24,VALID,0,INVALID,138.354,VALID,0,VALID,22.9554,VALID,30,VALID,0,
2014-08-16, 03:37:04,VALID,1011.24,VALID,0,INVALID,138.545,VALID,0,VALID,22.9147,VALID,30,VALID,0,
2014-08-16, 03:38:04,VALID,1011.23,VALID,0,INVALID,138.712,VALID,0,VALID,22.9147,VALID,30,VALID,0,
2014-08-16, 03:39:04,VALID,1011.21,VALID,0,INVALID,138.735,VALID,0,VALID,22.9554,VALID,30,VALID,0,
2014-08-16, 03:40:04,VALID,1011.23,VALID,0,INVALID,138.972,VALID,0,VALID,22.9147,VALID,30,VALID,0,
2014-08-16, 03:41:04,VALID,1011.23,VALID,0,INVALID,139.086,VALID,0.112112,VALID,22.9129,VALID,30,VALID,0,
2014-08-16, 03:42:04,VALID,1011.26,VALID,0,INVALID,139.216,VALID,0.112112,VALID,22.9129,VALID,30,VALID,0,
2014-08-16, 03:43:04,VALID,1011.27,VALID,0,INVALID,139.338,VALID,0.112112,VALID,22.8917,VALID,30,VALID,0,
2014-08-16, 03:44:04,VALID,1011.3,VALID,0,INVALID,139.422,VALID,0.112112,VALID,22.8935,VALID,30,VALID,0,
2014-08-16, 03:45:04,VALID,1011.35,VALID,0,INVALID,139.467,VALID,0.112112,VALID,22.9129,VALID,30,VALID,0,
2014-08-16, 03:46:04,VALID,1011.41,VALID,0,INVALID,139.506,VALID,0.112112,VALID,22.9129,VALID,30,VALID,0,
2014-08-16, 03:47:04,VALID,1011.48,VALID,0,INVALID,139.445,VALID,0.112112,VALID,22.9307,VALID,173,VALID,0,
2014-08-16, 03:48:04,VALID,1011.5,VALID,0,INVALID,139.3,VALID,0.112112,VALID,22.9714,VALID,197,VALID,0,
2014-08-16, 03:49:04,VALID,1011.43,VALID,0,INVALID,139.345,VALID,0.112112,VALID,22.9714,VALID,197,VALID,0,
2014-08-16, 03:50:04,VALID,1011.36,VALID,0,INVALID,139.254,VALID,0.112112,VALID,22.9909,VALID,197,VALID,0,
2014-08-16, 03:51:04,VALID,1011.35,VALID,0,INVALID,139.223,VALID,0.112112,VALID,23.0103,VALID,197,VALID,0,